Zurück zum Katalog

COSMOS 1275 DEB

AktivPO
NORAD 12966·DEBRIS·🇷🇺 Russia

Gestartet Jun 4, 1981 von Plesetsk Cosmodrome

Loading…

Nächste Überflüge (nächste 24 Stunden)

TLE

AktuellSource: Space-Track

Epoche: Sep 14, 2026, 06:08 UTC

1 12966U 81053EM  26257.25611678  .00000997  00000-0  52556-3 0  9990
2 12966  82.9425 186.8343 0034104  14.6330 138.0452 14.12751284277877

Verfolge COSMOS 1275 DEB in Echtzeit mit AllMySat

Download on the App Store